Weslaco, TX

10:52 AM CST on December 04, 2016 (GMT -0600)
Weslaco

Weather History for KT65 - December, 2012

Change the Weather History Date:

Sunday, December 23, 2012

  Actual Average (KMFE) Record (KMFE)
Temperature  
Mean Temperature 73 °F 61 °F  
Max Temperature 85 °F 71 °F 91 °F (2015)
Min Temperature 61 °F 51 °F 19 °F (1926)
Degree Days  
Heating Degree Days 0 7  
Month to date heating degree days 122  
Since 1 July heating degree days 182  
Cooling Degree Days 8 2  
Month to date cooling degree days 66  
Year to date cooling degree days 4435  
Growing Degree Days 23 (Base 50)    
Moisture  
Dew Point 57 °F    
Average Humidity 63    
Maximum Humidity 83    
Minimum Humidity 34    
Precipitation  
Precipitation 0.00 in 0.04 in 0.91 in (2006)
Month to date precipitation 0.86  
Year to date precipitation 21.87  
Sea Level Pressure  
Sea Level Pressure 29.99 in    
Wind  
Wind Speed 11 mph (South)    
Max Wind Speed 23 mph    
Max Gust Speed 31 mph    
Visibility 10 miles    
Events      
T = Trace of Precipitation, MM = Missing Value Source: NWS Daily Summary

Daily Weather History Graph

Daily Weather History Graph

Search for Another Location

Airport or City:

Trip Planner

Search our weather history database for the weather conditions in past years. The results will help you decide how hot, cold, wet, or windy it might be!

Date:

Astronomy

Dec. 23, 2012 Rise Set
Actual Time 7:16 AM CST 5:46 PM CST
Civil Twilight 6:50 AM CST 6:11 PM CST
Nautical Twilight 6:22 AM CST 6:40 PM CST
Astronomical Twilight 5:53 AM CST 7:08 PM CST
Moon 2:27 PM CST (12/23) 3:11 AM CST (12/23)
Length of Visible Light 11h 20m
Length of Day
10h 30m
Waxing Gibbous, 82% of the Moon is Illuminated
Dec 23
Waxing Gibbous
Dec 28
Full
Jan 4
Last Quarter
Jan 11
New
Jan 18
First Quarter

Hourly Weather History & Observations

Time (CST) Temp. Heat Index Dew Point Humidity Pressure Visibility Wind Dir Wind Speed Gust Speed Precip Events Conditions
12:15 AM 65.5 °F - 59.9 °F 82% 30.09 in 10.0 mi South 10.4 mph - N/A   Clear
12:35 AM 65.5 °F - 59.9 °F 82% 30.08 in 10.0 mi South 10.4 mph 16.1 mph N/A   Clear
12:55 AM 65.3 °F - 59.9 °F 83% 30.07 in 10.0 mi South 10.4 mph - N/A   Clear
1:15 AM 65.3 °F - 59.5 °F 82% 30.06 in 10.0 mi South 9.2 mph - N/A   Clear
1:35 AM 65.3 °F - 59.2 °F 81% 30.06 in 10.0 mi South 10.4 mph - N/A   Clear
1:55 AM 65.3 °F - 59.0 °F 80% 30.06 in 10.0 mi South 11.5 mph - N/A   Clear
2:15 AM 64.9 °F - 58.6 °F 80% 30.05 in 10.0 mi South 10.4 mph 16.1 mph N/A   Clear
2:35 AM 64.6 °F - 58.5 °F 80% 30.05 in 10.0 mi South 9.2 mph - N/A   Clear
2:55 AM 64.4 °F - 58.1 °F 80% 30.05 in 10.0 mi South 6.9 mph - N/A   Clear
3:15 AM 63.9 °F - 57.6 °F 80% 30.05 in 10.0 mi South 8.1 mph - N/A   Clear
3:35 AM 63.5 °F - 57.2 °F 80% 30.04 in 10.0 mi South 6.9 mph - N/A   Clear
3:55 AM 63.1 °F - 56.8 °F 80% 30.04 in 10.0 mi SSE 6.9 mph - N/A   Clear
4:15 AM 62.8 °F - 56.3 °F 79% 30.04 in 10.0 mi SSE 5.8 mph - N/A   Clear
4:35 AM 62.1 °F - 55.8 °F 80% 30.04 in 10.0 mi SSE 5.8 mph - N/A   Clear
4:55 AM 61.7 °F - 55.6 °F 80% 30.04 in 10.0 mi SSE 4.6 mph - N/A   Clear
5:15 AM 61.3 °F - 55.4 °F 81% 30.03 in 10.0 mi SSE 5.8 mph - N/A   Clear
5:35 AM 61.0 °F - 55.4 °F 82% 30.02 in 10.0 mi South 6.9 mph - N/A   Clear
5:55 AM 61.2 °F - 55.0 °F 80% 30.02 in 10.0 mi South 8.1 mph - N/A   Clear
6:15 AM 61.7 °F - 54.9 °F 78% 30.03 in 10.0 mi South 8.1 mph - N/A   Clear
6:35 AM 62.1 °F - 55.0 °F 78% 30.03 in 10.0 mi South 8.1 mph - N/A   Clear
6:55 AM 62.6 °F - 55.2 °F 77% 30.04 in 10.0 mi SSE 6.9 mph - N/A   Clear
7:15 AM 62.1 °F - 55.0 °F 78% 30.04 in 10.0 mi SSE 6.9 mph - N/A   Clear
7:35 AM 61.7 °F - 55.0 °F 79% 30.04 in 10.0 mi SSE 6.9 mph - N/A   Clear
7:55 AM 62.8 °F - 55.4 °F 77% 30.04 in 10.0 mi SSE 5.8 mph - N/A   Clear
8:15 AM 64.4 °F - 55.8 °F 73% 30.04 in 10.0 mi SSE 6.9 mph - N/A   Clear
8:35 AM 66.4 °F - 56.3 °F 70% 30.05 in 10.0 mi SSE 6.9 mph - N/A   Clear
8:55 AM 68.5 °F - 56.5 °F 65% 30.05 in 10.0 mi South 11.5 mph 16.1 mph N/A   Clear
9:15 AM 70.0 °F - 57.2 °F 64% 30.06 in 10.0 mi South 13.8 mph 19.6 mph N/A   Clear
9:35 AM 71.1 °F - 57.2 °F 61% 30.07 in 10.0 mi SSW 9.2 mph - N/A   Clear
9:55 AM 72.5 °F - 57.4 °F 59% 30.07 in 10.0 mi South 13.8 mph 19.6 mph N/A   Clear
10:15 AM 74.3 °F - 57.2 °F 55% 30.06 in 10.0 mi South 13.8 mph 21.9 mph N/A   Clear
10:35 AM 75.4 °F - 56.8 °F 52% 30.06 in 10.0 mi South 16.1 mph 23.0 mph N/A   Clear
10:55 AM 76.3 °F - 56.3 °F 50% 30.05 in 10.0 mi South 20.7 mph 27.6 mph N/A   Clear
11:15 AM 77.9 °F - 55.9 °F 47% 30.04 in 10.0 mi South 19.6 mph 28.8 mph N/A   Clear
11:35 AM 78.3 °F - 55.8 °F 46% 30.02 in 10.0 mi South 18.4 mph 25.3 mph N/A   Clear
11:55 AM 80.2 °F 80.3 °F 55.0 °F 42% 30.00 in 10.0 mi South 18.4 mph 24.2 mph N/A   Clear
12:15 PM 81.1 °F 80.7 °F 54.3 °F 39% 29.99 in 10.0 mi South 23.0 mph 28.8 mph N/A   Clear
12:35 PM 81.1 °F 80.7 °F 54.3 °F 39% 29.98 in 10.0 mi South 17.3 mph 31.1 mph N/A   Clear
12:55 PM 82.2 °F 81.4 °F 54.0 °F 38% 29.96 in 10.0 mi South 16.1 mph 24.2 mph N/A   Clear
1:15 PM 81.7 °F 81.1 °F 54.1 °F 39% 29.95 in 10.0 mi SSW 15.0 mph 21.9 mph N/A   Clear
1:35 PM 82.2 °F 81.3 °F 53.8 °F 37% 29.94 in 10.0 mi South 13.8 mph 25.3 mph N/A   Clear
1:55 PM 82.9 °F 81.8 °F 53.8 °F 36% 29.93 in 10.0 mi SSW 13.8 mph 23.0 mph N/A   Clear
2:15 PM 84.2 °F 82.8 °F 53.4 °F 35% 29.92 in 10.0 mi South 16.1 mph 21.9 mph N/A   Clear
2:35 PM 83.1 °F 81.9 °F 53.2 °F 36% 29.91 in 10.0 mi South 13.8 mph 21.9 mph N/A   Clear
2:55 PM 85.1 °F 83.5 °F 53.6 °F 34% 29.90 in 10.0 mi South 13.8 mph 21.9 mph N/A   Clear
3:15 PM 84.9 °F 83.3 °F 53.8 °F 34% 29.89 in 10.0 mi South 12.7 mph 18.4 mph N/A   Clear
3:35 PM 84.4 °F 82.9 °F 53.6 °F 35% 29.89 in 10.0 mi South 12.7 mph - N/A   Clear
3:55 PM 83.7 °F 82.8 °F 56.3 °F 39% 29.89 in 10.0 mi SSE 10.4 mph 17.3 mph N/A   Clear
4:15 PM 82.9 °F 82.3 °F 56.3 °F 40% 29.89 in 10.0 mi SSE 15.0 mph 20.7 mph N/A   Clear
4:35 PM 81.1 °F 81.0 °F 56.3 °F 42% 29.89 in 10.0 mi South 13.8 mph 18.4 mph N/A   Clear
4:55 PM 79.7 °F - 54.7 °F 42% 29.90 in 10.0 mi SSE 17.3 mph 20.7 mph N/A   Clear
5:15 PM 78.4 °F - 54.9 °F 44% 29.90 in 10.0 mi SSE 16.1 mph 24.2 mph N/A   Clear
5:35 PM 77.2 °F - 55.4 °F 47% 29.90 in 10.0 mi SSE 11.5 mph 18.4 mph N/A   Clear
5:55 PM 76.1 °F - 55.8 °F 49% 29.90 in 10.0 mi South 13.8 mph 19.6 mph N/A   Clear
6:15 PM 74.8 °F - 56.5 °F 53% 29.91 in 10.0 mi SSE 15.0 mph 20.7 mph N/A   Clear
6:35 PM 73.9 °F - 57.0 °F 55% 29.91 in 10.0 mi SSE 15.0 mph 25.3 mph N/A   Clear
6:55 PM 73.2 °F - 57.4 °F 57% 29.93 in 10.0 mi South 13.8 mph 19.6 mph N/A   Clear
7:15 PM 72.7 °F - 58.1 °F 60% 29.94 in 10.0 mi South 16.1 mph 23.0 mph N/A   Clear
7:35 PM 72.0 °F - 58.3 °F 62% 29.95 in 10.0 mi SSE 12.7 mph 19.6 mph N/A   Clear
7:55 PM 71.2 °F - 59.2 °F 66% 29.95 in 10.0 mi South 10.4 mph 16.1 mph N/A   Clear
8:15 PM 71.1 °F - 59.9 °F 68% 29.95 in 10.0 mi SSE 12.7 mph 18.4 mph N/A   Clear
8:55 PM 70.2 °F - 60.8 °F 72% 29.96 in 10.0 mi SSE 9.2 mph 18.4 mph N/A   Clear
9:15 PM 70.2 °F - 61.2 °F 73% 29.96 in 10.0 mi South 12.7 mph - N/A   Clear
9:35 PM 69.8 °F - 61.3 °F 74% 29.96 in 10.0 mi South 10.4 mph 18.4 mph N/A   Clear
9:55 PM 69.3 °F - 61.7 °F 77% 29.96 in 10.0 mi South 10.4 mph 16.1 mph N/A   Clear
10:15 PM 69.1 °F - 61.7 °F 77% 29.96 in 10.0 mi South 10.4 mph 16.1 mph N/A   Clear
10:35 PM 68.9 °F - 61.7 °F 78% 29.96 in 10.0 mi South 11.5 mph - N/A   Clear
10:55 PM 68.5 °F - 61.3 °F 78% 29.96 in 10.0 mi South 12.7 mph - N/A   Clear
11:15 PM 68.5 °F - 60.8 °F 76% 29.95 in 10.0 mi South 11.5 mph 17.3 mph N/A   Clear
11:35 PM 68.4 °F - 60.8 °F 77% 29.94 in 10.0 mi South 13.8 mph 17.3 mph N/A   Clear
11:55 PM 68.4 °F - 60.8 °F 77% 29.93 in 10.0 mi South 15.0 mph - N/A   Clear